Retour au catalogue

METEOR 2-7 DEB

ActifPO
NORAD 28388·DEBRIS·🇷🇺 Russia

Lancé May 14, 1981 depuis Plesetsk Cosmodrome

Loading…

Prochains Passages (prochaines 24 heures)

TLE

FraisSource: Space-Track

Époque: Sep 14, 2026, 13:15 UTC

1 28388U 81043E   26257.55266989  .00006961  00000-0  14909-2 0  9994
2 28388  81.2655 196.7845 0018825 107.5943 252.7312 14.58530536661118

Suivez METEOR 2-7 DEB en temps réel avec AllMySat

Download on the App Store